Forecast for Flamstone Farm, Bishopstone - last updated: Sun 16 May 11:00
Today     DescriptionTempPrecip.Rain risk%Pressure Wind AvGustHumidityVisibility
10:00 BSTHeavy rain9.4°C1.4 mm96 % 998 mb14 mph92 %2.0 mls
13:00 BSTHeavy rain10.4°C2.8 mm94 % 997 mb17 mph91 %3.2 mls
16:00 BSTLight rain11.3°C3.4 mm59 % 995 mb20 mph87 %25.3 mls
19:00 BSTCloudy10.9°C - 26 % 995 mb14 mph89 %14.9 mls
22:00 BSTCloudy9.5°C - 14 % 997 mb20 mph93 %12.9 mls
Mon 17 May     DescriptionTempPrecip.Rain risk%Pressure Wind AvGustHumidityVisibility
01:00 BSTCloudy10.1°C - 8 % 999 mb19 mph93 %12.7 mls
04:00 BSTCloudy8.5°C - 5 % 1001 mb17 mph95 %12.3 mls
07:00 BSTCloudy9.2°C - 4 % 1004 mb17 mph92 %12.0 mls
10:00 BSTCloudy12.3°C - 8 % 1006 mb18 mph76 %9.9 mls
13:00 BSTLight rain shower (day)14.6°C - 46 % 1007 mb20 mph62 %15.0 mls
16:00 BSTLight rain13.3°C0.8 mm62 % 1008 mb25 mph69 %12.7 mls
19:00 BSTCloudy12.3°C - 18 % 1009 mb20 mph73 %21.4 mls
22:00 BSTCloudy9.3°C - 5 % 1011 mb19 mph83 %17.9 mls
Tue 18 May     DescriptionTempPrecip.Rain risk%Pressure Wind AvGustHumidityVisibility
01:00 BSTCloudy9.7°C - 5 % 1012 mb16 mph91 %14.2 mls
04:00 BSTPartly cloudy (night)7.3°C - 13 % 1012 mb15 mph93 %13.8 mls
07:00 BSTPartly cloudy (day)8.4°C - 4 % 1013 mb15 mph91 %13.0 mls
10:00 BSTCloudy12.1°C - 20 % 1014 mb20 mph72 %15.3 mls
13:00 BSTLight rain shower (day)13.3°C1.3 mm48 % 1015 mb23 mph72 %14.2 mls
16:00 BSTLight rain12.7°C2.2 mm54 % 1015 mb23 mph70 %9.3 mls
19:00 BSTCloudy12.0°C - 20 % 1015 mb20 mph77 %10.5 mls
22:00 BSTPartly cloudy (night)9.2°C - 3 % 1016 mb13 mph89 %7.3 mls
Wed 19 May     DescriptionTempPrecip.Rain risk%Pressure Wind AvGustHumidityVisibility
01:00 BSTPartly cloudy (night)9.3°C - 5 % 1017 mb13 mph93 %7.2 mls
04:00 BSTPartly cloudy (night)7.6°C - 1 % 1017 mb13 mph94 %10.1 mls
07:00 BSTPartly cloudy (day)8.5°C - 1 % 1018 mb16 mph92 %11.1 mls
10:00 BSTCloudy12.0°C - 7 % 1020 mb24 mph69 %17.5 mls
13:00 BSTCloudy13.7°C - 7 % 1020 mb27 mph56 %18.1 mls
16:00 BSTCloudy14.0°C - 7 % 1021 mb27 mph56 %18.5 mls
19:00 BSTPartly cloudy (day)12.9°C - 5 % 1021 mb19 mph66 %15.3 mls
22:00 BSTClear night9.0°C - 1 % 1021 mb12 mph85 %15.6 mls
Thu 20 May     DescriptionTempPrecip.Rain risk%Pressure Wind AvGustHumidityVisibility
01:00 BSTClear night9.8°C - 2 % 1020 mb13 mph92 %11.8 mls
04:00 BSTPartly cloudy (night)7.6°C - 5 % 1019 mb13 mph92 %4.1 mls
07:00 BSTCloudy8.6°C - 9 % 1017 mb19 mph90 %5.5 mls
10:00 BSTCloudy11.4°C - 8 % 1015 mb32 mph77 %6.9 mls
13:00 BSTCloudy12.9°C - 10 % 1013 mb37 mph72 %10.3 mls
16:00 BSTCloudy13.0°C - 11 % 1010 mb39 mph71 %8.6 mls
19:00 BSTCloudy11.9°C - 12 % 1009 mb34 mph75 %9.1 mls
22:00 BSTCloudy9.8°C - 9 % 1009 mb29 mph81 %13.9 mls
Fri 21 May     DescriptionTempPrecip.Rain risk%Pressure Wind AvGustHumidityVisibility
01:00 BSTLight rain shower (night)9.5°C - 37 % 1009 mb27 mph87 %8.8 mls
04:00 BSTLight rain shower (night)8.8°C - 39 % 1008 mb24 mph88 %7.3 mls
07:00 BSTCloudy9.2°C - 21 % 1008 mb22 mph88 %9.0 mls
10:00 BSTLight rain shower (day)11.3°C0.6 mm43 % 1008 mb29 mph75 %10.3 mls
13:00 BSTLight rain shower (day)12.6°C0.9 mm40 % 1008 mb31 mph67 %9.9 mls
16:00 BSTLight rain shower (day)12.6°C0.6 mm36 % 1007 mb29 mph69 %8.6 mls
19:00 BSTLight rain shower (day)11.7°C0.5 mm38 % 1007 mb24 mph77 %10.5 mls
22:00 BSTPartly cloudy (night)9.2°C - 9 % 1007 mb18 mph87 %10.5 mls
Sat 22 May     DescriptionTempPrecip.Rain risk%Pressure Wind AvGustHumidityVisibility
01:00 BSTCloudy8.2°C - 20 % 1007 mb17 mph92 %9.0 mls
04:00 BSTLight rain shower (night)8.3°C0.6 mm40 % 1007 mb17 mph92 %8.3 mls
07:00 BSTLight rain8.6°C0.6 mm52 % 1007 mb18 mph92 %8.4 mls
10:00 BSTLight rain shower (day)10.6°C1.1 mm40 % 1007 mb24 mph82 %10.8 mls
13:00 BSTHeavy rain shower (day)12.5°C1.4 mm61 % 1008 mb26 mph74 %12.8 mls
16:00 BSTLight rain shower (day)12.7°C1.2 mm41 % 1008 mb25 mph70 %12.4 mls
19:00 BSTLight rain shower (day)11.4°C0.6 mm39 % 1009 mb20 mph73 %14.4 mls
22:00 BSTCloudy9.1°C - 12 % 1010 mb16 mph80 %13.6 mls
Never base important decisions that could result in harm to people or property on this weather information.